星链-38067(STARLINK-38067)

导读

**STARLINK-38067(NORAD 69747)是 SpaceX 星链低轨宽带星座的组网卫星,属美国SpaceX运营的V2 Mini改进型通信卫星。2026年6月中下旬由猎鹰9号火箭从美国西海岸范登堡太空军基地发射入轨,部署于倾角约53°、高度约550公里的近地轨道,轨道周期约95分钟。其核心任务为参与星链全球低轨互联网覆盖,向地面终端提供低延迟、高速率宽带接入服务,当前处于在轨测试及组网运行阶段,为全球民用、应急通信场景提供网络支撑,隶属Starlink 17批次组网序列。(全文约148字)**

Basic Information
目录编号:
69747
目录名称:
STARLINK-38067
国际标识:
2026-150J
轨道中心:
EARTH
卫星名称:
星链-38067
卫星全名:
星链-38067(STARLINK-38067)
卫星状态:
在轨 (已飞行64 天)
发射日期:
2026-07-02 UTC
国别 :
美国 (US)
星等 :
--
Orbit Information
数据来源 国际轨道数据 AOE轨道数据
星历时间 2026-09-04T07:33:05+0800
12小时前
查看轨道信息
2026-09-02T02:00:00+0800
2天前
查看轨道信息
半长轴 6843.668km 6843.585km
偏心率 0.0001103 0.0002131
轨道倾角 97.284° 97.286°
近地点辐角 94.131° 117.169°
升交点赤经 86.131° 83.928°
平近点角 266.006° 173.399°
近地点 464.776km 463.989km
远地点 466.286km 466.907km
周期 93.906分钟 93.904分钟
每日圈数 15.334494 15.334771
Detailed Information
固有亮度:
5
最大亮度:
2.5
卫星平台:
Starlink V1.0
覆盖范围:
全球
运营商:
太空探索技术公司
运营商所在国:
美国
制造商(研发单位):
太空探索技术公司
制造商所在国:
美国
使用方式:
暂无
Satellite Introduction
Starlink 计划是 SpaceX 推出的全球卫星互联网项目,通过发射低轨道卫星,为全球尤其是偏远地区提供高速、低延迟的互联网服务。自 2019 年起,Starlink 已部署数千颗卫星,旨在缩小全球数字鸿沟,推动互联网普及。该项目还为军事、航空等行业提供通信支持,带来广泛经济效益。
2D Orbit Map
3D Orbit Map
Orbit Altitude Analysis Chart
Orbit Inclination Analysis Chart
Orbit Comprehensive Analysis Chart
View Comprehensive Chart
Conjunction Data List
Event ID Objects TCA Miss Dist (km) Collision Risk Probability Collision Risk Index (CRI) Action
CDM_260905-150304-069806-974721
AVUM R/B (40698)
2026-09-05T
15:03:46+0000
1.325 km
极远距离
7.468569E-6 低风险 0.52
CDM_260828-211105-256006-974721
2026-08-28T
21:11:40+0000
1.555 km
极远距离
3.283588E-6 低风险 0.45
CDM_260905-134405-172406-974721
2026-09-05T
13:44:20+0000
2.353 km
极远距离
1.922502E-6 低风险 0.41
CDM_260905-160505-172406-974721
2026-09-05T
16:05:14+0000
2.609 km
极远距离
1.590876E-6 低风险 0.39
CDM_260904-121505-283506-974721
2026-09-04T
12:15:58+0000
2.745 km
极远距离
1.467097E-6 低风险 0.38